ZHONGXING-2A (38352 NORAD) Tracking and Keplerian Element Data

This shows tracking and keplerian element data for the satellite.

Feedback or suggestion? Click here.




ElementValue
Catalog38352
NameZHONGXING-2A
Epoch Orbit4949
Epoch Day353.69473828
Epoch Year2025
RAAN86.4485
Inclination0.9895
Eccentricity0.00022
Argument of Perigee190.7661
Mean Anonmoly159.6913
Mean Motion1.00271512
Decay Rate-2.69E-06
L11 38352U 12028A 25353.69473828 -.00000269 00000+0 00000+0 0 9995
L22 38352 0.9895 86.4485 0002200 190.7661 159.6913 1.00271512 49492



Live tracking and technical data element details for ZHONGXING-2A (NORAD 38352). ZHONGXING-2A can be tracked NOW for your location showing map with azimuth and elevation plus other details from your city location.







IsCatalogInMostPopularTable: catalog: 38352, numindb: 670
Update: records affected: 1



GetName: 38352 ZHONGXING-2A

Hit Count: updated at: Mon, 18 May 2026 09:29:58 GMT